Location: Newark
(35.8967°N, 14.4625°E)
Time: 00:21:15
(UTC+00:00)

N. Korean satellite - Pass Details

Date: 20 November 2019
Orbit: 456 x 506 km, 97.2° (Epoch: 09 December)

Event Time Altitude Azimuth Distance (km) Brightness Sun altitude
Rises 16:15:55 0° 172° (S) 2,544 10.4 -5.3°
Reaches altitude 10° 16:17:58 10° 174° (S) 1,676 9.5 -5.7°
Maximum altitude 16:21:34 73° 259° (WSW) 523 6.9 -6.4°
Drops below altitude 10° 16:25:15 10° 345° (NNW) 1,713 9.3 -7.1°
Sets 16:27:22 0° 347° (NNW) 2,607 10.2 -7.5°
